QPF
0.00 0.00 0.00 0.00 0.00 0.00 0.00 0.00 0.00 0.00 0.00 0.00 0.00 0.00 0.00 0.00 0.00 0.00 0.00 0.00 0.00 0.00 0.00 0.00 0.00 0.00 0.00 0.00 0.00 0.00 0.00 0.00 0.00 0.00 0.00 0.00 0.00 0.00 0.00 0.00 0.00 0.00 0.01 0.04 0.08
0.00 0.00 0.00 0.00 0.00 0.00 0.00 0.00 0.00 0.00 0.00 0.00 0.00 0.00 0.00 0.00 0.00 0.00 0.00 0.00 0.00 0.00 0.00 0.00 0.00 0.00 0.00 0.00 0.00 0.00 0.00 0.00 0.00 0.00 0.00 0.00 0.03 0.02 0.00 0.03 0.05 0.01 0.02 0.03 0.02
0.00 0.00 0.00 0.00 0.00 0.00 0.00 0.00 0.00 0.00 0.00 0.00 0.00 0.00 0.00 0.00 0.00 0.00 0.00 0.00 0.00 0.00 0.00 0.00 0.00 0.00 0.00 0.00 0.00 0.00 0.00 0.00 0.00 0.00 0.00 0.03 0.01 0.01 0.01 0.01 0.02 0.02 0.02 0.03 0.02
0.01 0.00 0.00 0.00 0.00 0.00 0.00 0.00 0.00 0.00 0.00 0.00 0.00 0.00 0.00 0.00 0.00 0.00 0.00 0.00 0.00 0.00 0.00 0.00 0.00 0.00 0.00 0.00 0.00 0.00 0.00 0.00 0.00 0.00 0.00 0.01 0.01 0.00 0.01 0.00 0.00 0.01 0.00 0.02 0.04
0.00 0.00 0.00 0.00 0.00 0.00 0.00 0.00 0.00 0.00 0.00 0.00 0.00 0.00 0.00 0.00 0.00 0.00 0.00 0.00 0.00 0.00 0.00 0.00 0.00 0.00 0.00 0.00 0.00 0.00 0.00 0.00 0.00 0.00 0.02 0.00 0.00 0.00 0.00 0.00 0.01 0.01 0.00 0.02 0.06
0.00 0.00 0.00 0.00 0.00 0.00 0.00 0.00 0.00 0.00 0.00 0.00 0.00 0.00 0.00 0.00 0.00 0.00 0.00 0.00 0.00 0.00 0.00 0.00 0.00 0.00 0.00 0.00 0.00 0.00 0.00 0.00 0.00 0.00 0.00 0.00 0.00 0.00 0.00 0.00 0.00 0.00 0.00 0.01 0.01
0.00 0.00 0.00 0.01 0.00 0.00 0.00 0.00 0.00 0.00 0.00 0.00 0.00 0.00 0.00 0.00 0.00 0.00 0.00 0.00 0.00 0.00 0.00 0.00 0.00 0.00 0.00 0.00 0.00 0.00 0.00 0.00 0.00 0.00 0.00 0.00 0.00 0.00 0.00 0.00 0.00 0.00 0.00 0.00 0.00
0.00 0.00 0.00 0.00 0.00 0.00 0.00 0.00 0.00 0.00 0.00 0.00 0.00 0.00 0.00 0.00 0.00 0.00 0.00 0.00 0.00 0.00 0.00 0.00 0.00 0.00 0.00 0.00 0.00 0.00 0.00 0.00 0.00 0.00 0.00 0.00 0.00 0.00 0.00 0.00 0.00 0.00 0.00 0.00 0.00
0.00 0.00 0.00 0.00 0.00 0.00 0.00 0.00 0.00 0.00 0.00 0.00 0.00 0.00 0.00 0.00 0.00 0.00 0.00 0.00 0.00 0.00 0.00 0.00 0.00 0.00 0.00 0.00 0.00 0.00 0.00 0.00 0.01 0.00 0.00 0.00 0.00 0.00 0.00 0.00 0.00 0.00 0.00 0.00 0.00
0.00 0.00 0.00 0.00 0.01 0.01 0.00 0.00 0.00 0.00 0.00 0.00 0.00 0.00 0.00 0.00 0.00 0.00 0.00 0.00 0.00 0.00 0.00 0.00 0.00 0.00 0.00 0.00 0.00 0.00 0.00 0.00 0.00 0.00 0.00 0.00 0.00 0.00 0.00 0.00 0.00 0.00 0.00 0.00 0.00
0.00 0.00 0.00 0.00 0.01 0.01 0.00 0.00 0.00 0.00 0.00 0.00 0.00 0.00 0.00 0.00 0.00 0.00 0.00 0.00 0.00 0.00 0.00 0.00 0.00 0.00 0.00 0.00 0.00 0.00 0.00 0.00 0.00 0.00 0.00 0.00 0.00 0.00 0.00 0.00 0.00 0.00 0.00 0.00 0.00
0.00 0.00 0.00 0.00 0.00 0.01 0.00 0.00 0.00 0.00 0.00 0.00 0.00 0.00 0.00 0.00 0.00 0.00 0.00 0.00 0.00 0.00 0.00 0.00 0.00 0.00 0.00 0.00 0.00 0.00 0.00 0.00 0.00 0.00 0.00 0.00 0.00 0.00 0.00 0.00 0.00 0.00 0.00 0.00 0.00
0.00 0.00 0.00 0.00 0.00 0.00 0.00 0.00 0.00 0.00 0.00 0.00 0.00 0.00 0.00 0.00 0.00 0.00 0.00 0.00 0.00 0.00 0.00 0.00 0.00 0.00 0.00 0.00 0.00 0.00 0.00 0.00 0.00 0.00 0.00 0.00 0.00 0.00 0.00 0.00 0.00 0.00 0.00 0.00 0.00
0.00 0.00 0.00 0.00 0.00 0.00 0.00 0.00 0.00 0.00 0.00 0.00 0.00 0.00 0.00 0.00 0.00 0.00 0.00 0.00 0.00 0.00 0.00 0.00 0.00 0.00 0.00 0.00 0.00 0.00 0.00 0.00 0.00 0.00 0.00 0.00 0.00 0.00 0.00 0.00 0.00 0.00 0.00 0.00 0.00
0.00 0.00 0.00 0.00 0.00 0.00 0.00 0.00 0.00 0.00 0.00 0.00 0.00 0.00 0.00 0.00 0.00 0.00 0.00 0.00 0.00 0.00 0.00 0.00 0.00 0.00 0.00 0.00 0.00 0.00 0.00 0.00 0.00 0.00 0.00 0.00 0.00 0.00 0.00 0.00 0.00 0.00 0.00 0.00 0.00
0.00 0.00 0.00 0.00 0.00 0.00 0.00 0.00 0.00 0.00 0.00 0.00 0.00 0.00 0.00 0.00 0.00 0.00 0.00 0.00 0.00 0.00 0.00 0.00 0.00 0.00 0.00 0.00 0.00 0.00 0.00 0.00 0.00 0.00 0.00 0.00 0.00 0.00 0.00 0.00 0.00 0.00 0.00 0.00 0.00
0.00 0.01 0.00 0.01 0.00 0.00 0.00 0.00 0.01 0.00 0.00 0.00 0.00 0.00 0.00 0.00 0.00 0.00 0.00 0.00 0.00 0.00 0.00 0.00 0.00 0.00 0.00 0.00 0.00 0.00 0.00 0.00 0.00 0.00 0.00 0.00 0.00 0.00 0.00 0.00 0.00 0.00 0.00 0.00 0.00
0.01 0.01 0.01 0.00 0.00 0.00 0.00 0.01 0.00 0.00 0.00 0.00 0.00 0.00 0.00 0.00 0.00 0.00 0.00 0.00 0.00 0.00 0.00 0.00 0.00 0.00 0.00 0.00 0.00 0.00 0.00 0.00 0.00 0.00 0.00 0.00 0.00 0.00 0.00 0.00 0.00 0.00 0.00 0.00 0.00
0.02 0.01 0.01 0.00 0.00 0.00 0.01 0.01 0.00 0.00 0.00 0.00 0.00 0.00 0.00 0.00 0.00 0.00 0.00 0.00 0.00 0.00 0.00 0.00 0.00 0.00 0.00 0.00 0.00 0.00 0.00 0.00 0.00 0.00 0.00 0.00 0.00 0.00 0.00 0.00 0.00 0.00 0.00 0.00 0.00
0.01 0.01 0.01 0.00 0.01 0.02 0.02 0.00 0.00 0.00 0.00 0.00 0.00 0.00 0.00 0.00 0.00 0.00 0.00 0.00 0.00 0.00 0.00 0.00 0.00 0.00 0.00 0.00 0.00 0.00 0.00 0.00 0.00 0.00 0.00 0.00 0.00 0.00 0.00 0.00 0.00 0.00 0.00 0.00 0.00
0.03 0.03 0.00 0.01 0.05 0.06 0.01 0.00 0.00 0.00 0.00 0.00 0.00 0.00 0.00 0.00 0.00 0.00 0.00 0.00 0.00 0.00 0.00 0.00 0.00 0.00 0.00 0.00 0.00 0.00 0.00 0.00 0.00 0.00 0.00 0.00 0.00 0.00 0.00 0.00 0.00 0.00 0.00 0.00 0.00
0.07 0.02 0.00 0.02 0.06 0.02 0.00 0.00 0.00 0.00 0.00 0.00 0.00 0.00 0.00 0.00 0.00 0.00 0.00 0.00 0.00 0.00 0.00 0.00 0.00 0.00 0.00 0.00 0.00 0.00 0.00 0.00 0.00 0.00 0.00 0.00 0.00 0.00 0.00 0.00 0.00 0.00 0.00 0.00 0.00
0.10 0.03 0.07 0.04 0.02 0.00 0.00 0.00 0.00 0.00 0.00 0.00 0.00 0.00 0.00 0.00 0.00 0.00 0.00 0.00 0.00 0.00 0.00 0.00 0.00 0.00 0.00 0.00 0.00 0.00 0.00 0.00 0.00 0.00 0.00 0.00 0.00 0.00 0.00 0.00 0.00 0.00 0.00 0.00 0.00
0.10 0.06 0.12 0.07 0.00 0.00 0.00 0.00 0.00 0.00 0.00 0.00 0.00 0.00 0.00 0.00 0.00 0.00 0.00 0.00 0.00 0.00 0.00 0.00 0.00 0.00 0.00 0.00 0.00 0.00 0.00 0.00 0.00 0.00 0.00 0.00 0.00 0.00 0.00 0.00 0.00 0.00 0.00 0.00 0.00
0.12 0.04 0.02 0.01 0.00 0.00 0.00 0.00 0.00 0.00 0.00 0.00 0.00 0.00 0.00 0.00 0.00 0.00 0.00 0.00 0.00 0.00 0.00 0.00 0.00 0.00 0.00 0.00 0.00 0.00 0.00 0.00 0.00 0.00 0.00 0.00 0.00 0.00 0.00 0.00 0.00 0.00 0.00 0.00 0.00
0.09 0.01 0.01 0.00 0.00 0.00 0.00 0.00 0.00 0.00 0.00 0.00 0.00 0.00 0.00 0.00 0.00 0.00 0.00 0.00 0.00 0.00 0.00 0.00 0.00 0.00 0.00 0.00 0.00 0.00 0.00 0.00 0.00 0.00 0.00 0.00 0.00 0.00 0.00 0.00 0.00 0.00 0.00 0.00 0.00
0.07 0.00 0.01 0.00 0.00 0.00 0.00 0.00 0.00 0.00 0.00 0.00 0.00 0.00 0.00 0.00 0.01 0.00 0.00 0.00 0.00 0.00 0.00 0.00 0.00 0.00 0.00 0.00 0.00 0.00 0.00 0.00 0.00 0.00 0.00 0.00 0.00 0.00 0.00 0.00 0.00 0.00 0.00 0.00 0.00
MSLP
1021.28 1021.22 1021.12 1021.08 1020.97 1020.84 1020.68 1020.41 1020.13 1019.82 1019.34 1018.85 1018.31 1017.80 1017.49 1017.17 1016.47 1016.17 1015.25 1013.89 1013.92 1013.81 1014.05 1014.27 1014.03 1014.30 1014.22 1014.38 1014.56 1014.63 1014.34 1013.55 1013.13 1012.76 1012.35 1012.53 1012.67 1013.27 1013.74 1013.82 1013.95 1014.25 1014.50 1015.18 1016.18
1021.02 1020.92 1020.89 1020.74 1020.71 1020.69 1020.48 1020.29 1019.99 1019.63 1019.34 1018.76 1018.35 1017.73 1017.26 1016.97 1016.53 1015.25 1013.28 1013.38 1013.59 1013.74 1013.94 1013.98 1014.14 1014.07 1014.04 1014.15 1014.33 1014.06 1014.14 1013.32 1012.78 1012.44 1012.27 1012.62 1012.79 1013.32 1013.72 1014.01 1014.22 1014.50 1015.15 1015.84 1016.44
1020.82 1020.72 1020.62 1020.54 1020.41 1020.42 1020.31 1020.05 1019.86 1019.45 1019.26 1018.82 1018.29 1017.58 1017.18 1016.90 1016.11 1013.77 1012.86 1013.21 1013.52 1013.71 1013.71 1013.66 1013.61 1013.89 1013.78 1013.97 1013.96 1013.82 1013.17 1012.60 1012.29 1012.16 1012.33 1012.51 1012.86 1013.20 1013.78 1014.00 1014.12 1014.41 1015.20 1015.93 1016.47
1020.78 1020.67 1020.42 1020.34 1020.22 1020.12 1020.01 1019.88 1019.64 1019.39 1018.94 1018.93 1018.26 1017.55 1017.05 1016.85 1015.22 1012.99 1012.78 1013.02 1013.40 1013.67 1013.79 1013.73 1013.65 1013.85 1013.67 1013.64 1013.46 1013.46 1012.55 1012.13 1012.05 1012.03 1012.31 1012.35 1012.68 1013.49 1014.17 1013.99 1014.12 1014.94 1015.56 1016.15 1016.71
1020.87 1020.60 1020.35 1020.12 1019.99 1019.90 1019.78 1019.65 1019.40 1019.21 1018.93 1018.71 1018.33 1017.77 1016.98 1016.22 1013.79 1012.79 1012.76 1013.15 1013.48 1013.64 1013.62 1013.50 1013.38 1013.54 1013.37 1013.38 1013.28 1013.02 1012.16 1011.88 1011.94 1012.03 1012.40 1012.64 1013.19 1013.83 1014.58 1014.79 1014.97 1015.48 1015.87 1016.38 1016.91
1020.67 1020.55 1020.28 1019.94 1019.75 1019.63 1019.57 1019.29 1019.28 1018.90 1018.83 1018.53 1018.23 1017.97 1017.45 1015.67 1012.84 1012.61 1012.89 1013.38 1013.43 1013.60 1013.51 1013.25 1013.12 1013.14 1013.17 1013.05 1013.00 1012.32 1012.06 1011.87 1011.89 1012.10 1012.22 1012.71 1013.60 1013.92 1015.15 1015.35 1015.61 1015.79 1016.01 1016.51 1017.05
1020.31 1020.24 1020.08 1019.81 1019.55 1019.38 1019.30 1019.13 1018.89 1018.76 1018.64 1018.39 1018.22 1018.13 1017.42 1014.01 1012.95 1012.85 1012.80 1012.89 1013.08 1013.18 1013.36 1013.10 1012.98 1013.05 1012.96 1012.65 1012.45 1012.14 1011.95 1011.94 1012.00 1012.18 1012.19 1012.52 1013.54 1014.55 1015.37 1015.85 1015.85 1015.87 1016.28 1016.68 1017.07
1019.95 1019.85 1019.73 1019.56 1019.30 1019.21 1018.95 1018.85 1018.52 1018.25 1018.26 1018.25 1018.15 1018.27 1015.69 1012.88 1013.02 1012.96 1012.89 1012.72 1012.88 1013.08 1013.09 1012.84 1012.86 1013.00 1012.95 1012.52 1012.24 1011.99 1011.85 1011.75 1011.83 1011.93 1012.18 1012.60 1013.84 1015.05 1015.66 1015.84 1015.85 1015.92 1016.18 1016.61 1016.97
1019.63 1019.62 1019.51 1019.25 1019.13 1018.86 1018.67 1018.41 1018.14 1017.84 1017.99 1017.91 1018.19 1017.91 1014.40 1012.42 1012.69 1011.97 1012.23 1012.23 1012.47 1012.85 1012.89 1012.88 1012.81 1013.03 1012.99 1012.69 1012.38 1012.09 1011.67 1011.56 1011.70 1011.56 1012.03 1012.50 1013.57 1014.61 1015.52 1015.73 1015.73 1015.82 1015.95 1016.29 1016.79
1019.31 1019.43 1019.32 1019.04 1018.70 1018.56 1018.29 1017.87 1017.64 1017.86 1018.00 1017.80 1017.89 1017.49 1013.58 1011.87 1011.44 1011.77 1011.84 1011.78 1011.96 1012.53 1012.92 1012.91 1013.08 1013.12 1013.13 1012.95 1012.45 1012.22 1011.89 1011.59 1011.35 1011.53 1011.85 1012.40 1013.35 1014.36 1015.12 1015.40 1015.60 1015.76 1015.88 1016.07 1016.25
1018.60 1019.13 1019.07 1018.97 1018.57 1018.28 1018.31 1017.75 1018.05 1017.90 1017.64 1015.81 1015.17 1014.51 1012.87 1011.73 1011.69 1011.36 1011.48 1011.60 1011.71 1012.13 1012.61 1012.85 1012.98 1012.84 1012.45 1012.51 1012.21 1011.98 1011.96 1011.64 1011.46 1011.44 1011.84 1012.30 1013.05 1013.85 1014.50 1015.08 1015.29 1015.54 1015.67 1015.64 1015.63
1017.99 1018.36 1018.85 1018.76 1018.53 1018.18 1018.46 1018.16 1017.35 1017.65 1016.39 1014.57 1013.82 1013.29 1012.61 1012.16 1012.01 1011.42 1011.26 1010.88 1011.57 1011.97 1012.45 1013.02 1012.54 1012.16 1012.28 1012.27 1012.22 1011.93 1011.91 1011.76 1011.72 1011.73 1011.76 1012.30 1012.93 1013.57 1014.19 1013.97 1014.35 1014.64 1015.04 1015.05 1015.07
1017.69 1017.68 1018.41 1018.50 1018.23 1018.18 1017.99 1017.60 1016.97 1017.03 1016.68 1013.41 1012.41 1011.75 1011.41 1011.64 1011.28 1010.90 1011.14 1010.42 1010.87 1011.67 1012.05 1012.20 1011.75 1011.69 1011.99 1012.21 1012.09 1011.67 1011.86 1011.84 1011.79 1011.93 1012.29 1012.39 1012.64 1013.02 1013.51 1013.97 1014.00 1014.09 1014.30 1014.51 1014.64
1017.24 1017.55 1017.93 1018.13 1018.61 1017.58 1017.34 1016.80 1016.71 1017.49 1016.28 1012.55 1011.23 1010.10 1010.34 1010.39 1010.26 1009.82 1010.11 1009.87 1010.44 1010.90 1011.65 1011.77 1011.40 1011.37 1011.66 1011.63 1011.92 1011.53 1011.15 1011.64 1011.72 1012.18 1012.30 1012.46 1012.50 1012.32 1012.70 1012.91 1013.04 1012.91 1013.26 1013.27 1013.72
1016.75 1017.11 1017.59 1018.24 1017.45 1017.25 1016.50 1016.44 1016.74 1017.09 1015.28 1010.67 1009.71 1009.05 1009.33 1009.48 1009.01 1009.44 1009.45 1009.60 1009.90 1010.42 1011.05 1010.89 1010.86 1011.06 1011.18 1010.86 1010.99 1011.13 1011.10 1011.45 1011.83 1012.40 1012.70 1012.82 1012.65 1011.76 1012.03 1011.98 1011.57 1011.52 1011.79 1012.13 1012.63
1016.11 1016.84 1017.09 1017.83 1017.29 1016.46 1016.22 1016.17 1016.68 1016.56 1013.15 1009.99 1009.03 1008.97 1009.40 1009.24 1008.68 1009.21 1009.34 1009.33 1009.76 1010.24 1010.38 1010.48 1010.40 1010.33 1010.28 1010.32 1010.52 1010.99 1011.41 1011.68 1012.53 1012.68 1013.00 1012.72 1012.47 1011.46 1011.08 1010.34 1010.04 1010.25 1010.76 1010.96 1011.36
1015.53 1016.18 1016.71 1016.54 1015.89 1016.05 1016.21 1016.05 1016.33 1014.49 1011.31 1009.85 1009.06 1008.93 1008.67 1009.05 1008.84 1008.87 1009.14 1009.45 1009.71 1010.35 1010.32 1010.44 1010.29 1009.93 1009.95 1010.36 1010.54 1010.78 1011.42 1012.35 1012.94 1013.09 1013.04 1012.83 1012.33 1010.77 1009.79 1009.88 1009.76 1009.54 1009.70 1009.88 1010.24
1015.08 1015.71 1015.98 1016.06 1015.67 1015.68 1016.19 1016.01 1014.23 1011.78 1010.51 1009.58 1009.01 1008.69 1008.78 1008.68 1008.94 1008.78 1009.14 1009.46 1009.76 1009.95 1010.49 1010.50 1010.46 1009.98 1009.78 1009.90 1010.03 1010.89 1011.38 1012.35 1012.91 1013.53 1013.29 1013.00 1011.93 1010.09 1009.48 1009.44 1009.36 1009.34 1009.37 1009.60 1009.65
1014.52 1015.40 1015.71 1015.69 1015.69 1015.68 1015.57 1014.68 1011.01 1010.32 1009.52 1009.12 1008.84 1008.85 1008.97 1008.52 1008.76 1008.73 1009.05 1009.13 1009.32 1009.57 1009.85 1010.50 1010.39 1009.88 1009.86 1009.66 1009.76 1010.99 1011.84 1012.28 1013.03 1014.36 1013.76 1012.55 1011.50 1010.01 1009.25 1008.96 1008.98 1009.16 1009.08 1009.11 1009.32
1013.68 1014.86 1014.99 1015.40 1015.52 1015.49 1014.69 1012.31 1010.63 1009.14 1008.68 1008.59 1008.80 1008.57 1008.73 1008.28 1008.71 1008.65 1008.91 1008.52 1008.92 1009.11 1008.99 1009.96 1010.28 1010.20 1010.04 1009.85 1010.36 1010.64 1011.58 1012.60 1013.03 1013.65 1013.50 1012.59 1011.62 1010.17 1009.22 1008.91 1008.98 1009.12 1009.08 1008.72 1008.88
1013.08 1013.55 1013.27 1014.89 1015.31 1014.41 1012.33 1010.68 1010.09 1008.77 1008.14 1008.70 1008.51 1008.77 1008.51 1008.29 1008.23 1008.41 1008.43 1008.37 1008.25 1009.01 1009.25 1009.71 1010.15 1010.79 1010.46 1010.09 1010.11 1011.17 1011.51 1012.41 1012.68 1013.25 1013.21 1012.70 1011.26 1009.81 1009.18 1008.93 1008.90 1008.91 1009.20 1009.26 1008.97
1012.00 1012.05 1011.76 1013.71 1014.06 1011.81 1010.49 1009.89 1009.28 1008.58 1008.43 1008.37 1008.44 1008.95 1008.61 1008.20 1008.04 1008.04 1007.99 1007.65 1007.49 1008.12 1009.22 1009.54 1009.86 1010.56 1010.21 1010.00 1009.92 1010.17 1010.90 1011.73 1012.43 1013.39 1013.48 1012.76 1010.88 1009.26 1008.94 1008.97 1009.08 1008.88 1009.25 1009.39 1009.36
1010.70 1010.89 1010.89 1011.70 1011.73 1010.43 1009.94 1009.53 1008.94 1008.36 1008.33 1008.13 1008.39 1008.60 1008.41 1008.33 1008.17 1007.77 1007.59 1007.20 1007.53 1007.82 1008.26 1009.31 1009.85 1010.38 1010.37 1010.54 1010.51 1010.46 1010.80 1011.42 1011.98 1012.52 1012.59 1012.16 1010.57 1009.33 1009.15 1008.92 1008.90 1008.96 1009.10 1009.29 1009.44
1009.62 1009.88 1009.88 1010.66 1010.10 1009.43 1009.52 1008.89 1008.54 1008.27 1008.37 1007.97 1008.19 1008.64 1008.48 1008.35 1007.92 1007.68 1007.57 1007.39 1007.41 1007.76 1007.69 1008.16 1009.27 1009.67 1009.87 1009.82 1010.01 1010.43 1010.48 1010.92 1011.21 1011.94 1011.58 1011.06 1010.03 1009.27 1008.85 1008.92 1008.65 1009.00 1009.25 1009.60 1009.77
1007.92 1007.63 1006.85 1007.29 1009.26 1009.06 1008.65 1007.95 1007.91 1007.64 1008.14 1008.29 1007.98 1008.39 1008.39 1008.59 1008.20 1007.78 1007.60 1007.77 1007.95 1008.16 1008.39 1008.32 1009.23 1009.71 1009.41 1009.35 1009.52 1009.49 1009.78 1010.35 1010.64 1010.42 1010.63 1009.91 1009.81 1009.04 1008.65 1008.82 1009.13 1009.49 1009.78 1010.10 1010.56
1006.56 1006.23 1006.18 1005.17 1006.98 1008.79 1008.31 1007.03 1006.93 1007.32 1007.06 1007.51 1006.99 1007.70 1008.27 1008.33 1007.84 1007.74 1007.85 1008.01 1008.26 1008.73 1008.60 1008.83 1009.49 1009.93 1010.11 1009.93 1009.89 1009.78 1009.38 1009.57 1009.95 1010.00 1009.98 1009.62 1009.34 1008.69 1008.74 1009.26 1009.74 1010.15 1010.58 1011.01 1011.56
1005.56 1005.08 1005.30 1004.95 1005.75 1007.35 1006.70 1007.00 1006.87 1007.13 1006.87 1006.90 1007.08 1007.64 1007.89 1007.51 1007.68 1007.77 1007.78 1007.96 1008.10 1008.55 1009.13 1009.29 1009.64 1010.51 1010.86 1010.59 1010.19 1009.78 1009.04 1009.00 1009.15 1009.09 1008.69 1008.75 1008.33 1008.58 1009.11 1009.74 1010.28 1010.89 1011.62 1012.21 1012.74
Thickness
5636 5638 5640 5641 5644 5646 5648 5650 5654 5656 5659 5663 5665 5667 5667 5667 5672 5671 5672 5679 5673 5668 5661 5654 5649 5640 5637 5630 5627 5622 5619 5619 5626 5631 5643 5649 5648 5649 5650 5649 5653 5655 5656 5656 5648
5630 5632 5634 5637 5639 5640 5643 5646 5649 5652 5654 5658 5660 5663 5665 5665 5667 5671 5685 5679 5672 5665 5658 5652 5641 5639 5632 5629 5626 5627 5616 5625 5637 5645 5647 5647 5647 5646 5645 5642 5646 5648 5648 5646 5643
5625 5627 5629 5631 5634 5635 5638 5641 5643 5648 5649 5653 5655 5660 5662 5663 5669 5682 5685 5678 5671 5663 5658 5654 5647 5638 5630 5627 5627 5624 5631 5638 5644 5649 5651 5645 5645 5649 5642 5639 5645 5644 5641 5639 5639
5616 5620 5623 5625 5628 5631 5634 5636 5639 5642 5646 5646 5650 5655 5657 5659 5665 5684 5682 5677 5669 5661 5655 5647 5643 5633 5627 5625 5632 5629 5642 5647 5651 5652 5651 5649 5649 5640 5637 5643 5646 5641 5638 5634 5631
5606 5611 5615 5619 5622 5625 5628 5631 5635 5638 5640 5641 5644 5648 5655 5659 5671 5683 5680 5673 5666 5659 5652 5645 5640 5634 5629 5629 5632 5634 5647 5654 5653 5653 5648 5651 5642 5636 5630 5634 5634 5630 5633 5628 5624
5598 5602 5606 5611 5615 5619 5621 5626 5629 5633 5636 5637 5639 5642 5646 5651 5680 5681 5676 5668 5663 5655 5649 5646 5642 5640 5633 5632 5633 5645 5649 5653 5652 5652 5651 5644 5638 5641 5630 5634 5629 5630 5629 5626 5621
5591 5594 5598 5603 5608 5611 5615 5618 5624 5628 5631 5633 5635 5635 5639 5661 5674 5675 5673 5669 5663 5657 5646 5646 5646 5640 5638 5635 5643 5646 5645 5647 5649 5651 5648 5652 5641 5630 5631 5630 5628 5628 5626 5623 5621
5583 5587 5591 5595 5601 5605 5609 5612 5618 5624 5627 5627 5629 5628 5646 5670 5669 5669 5668 5667 5662 5656 5651 5650 5647 5640 5636 5642 5642 5641 5644 5640 5648 5652 5651 5652 5631 5626 5628 5630 5629 5629 5626 5622 5622
5573 5577 5582 5587 5593 5599 5603 5608 5613 5620 5620 5623 5622 5624 5648 5669 5665 5672 5669 5666 5661 5655 5652 5650 5646 5636 5635 5631 5631 5633 5636 5638 5641 5655 5651 5651 5634 5634 5630 5632 5632 5632 5630 5627 5624
5563 5566 5571 5578 5586 5591 5598 5606 5610 5611 5613 5615 5616 5621 5653 5664 5671 5668 5668 5668 5661 5652 5645 5641 5634 5630 5625 5626 5619 5625 5630 5637 5642 5652 5652 5648 5641 5635 5633 5633 5632 5633 5632 5629 5629
5557 5555 5561 5566 5575 5584 5588 5598 5604 5607 5607 5632 5637 5637 5650 5662 5663 5665 5664 5662 5659 5650 5636 5634 5629 5624 5631 5628 5633 5634 5631 5634 5644 5652 5648 5645 5644 5639 5637 5634 5633 5633 5633 5633 5634
5549 5550 5550 5556 5564 5573 5577 5584 5597 5595 5610 5628 5633 5640 5646 5651 5646 5656 5662 5658 5648 5638 5635 5628 5624 5633 5630 5630 5630 5633 5631 5634 5639 5643 5647 5640 5640 5642 5637 5642 5641 5639 5636 5639 5641
5535 5543 5540 5546 5555 5561 5569 5578 5586 5590 5595 5628 5635 5643 5646 5647 5646 5650 5654 5655 5647 5634 5631 5627 5638 5637 5633 5629 5630 5635 5629 5630 5635 5638 5636 5639 5641 5641 5642 5640 5642 5642 5644 5643 5643
5524 5527 5531 5536 5542 5555 5562 5572 5578 5576 5587 5624 5633 5645 5644 5650 5646 5660 5659 5658 5647 5638 5630 5631 5638 5636 5631 5630 5629 5629 5646 5637 5635 5634 5633 5638 5631 5638 5643 5644 5646 5651 5648 5650 5648
5512 5516 5518 5521 5539 5546 5558 5563 5567 5571 5571 5631 5635 5650 5648 5650 5657 5651 5659 5653 5641 5637 5637 5636 5635 5632 5630 5638 5638 5637 5642 5641 5637 5630 5628 5627 5631 5649 5639 5645 5655 5660 5659 5659 5656
5502 5502 5508 5513 5527 5537 5547 5553 5555 5559 5573 5617 5632 5630 5632 5641 5649 5646 5649 5654 5648 5637 5638 5636 5643 5643 5644 5644 5643 5638 5636 5634 5624 5625 5618 5624 5629 5642 5645 5659 5670 5671 5665 5666 5665
5489 5492 5497 5510 5529 5524 5530 5541 5542 5554 5600 5611 5618 5623 5629 5628 5634 5637 5638 5635 5632 5618 5622 5630 5634 5644 5645 5637 5639 5636 5630 5615 5613 5610 5612 5619 5622 5648 5665 5662 5665 5671 5673 5675 5673
5469 5476 5486 5499 5510 5513 5517 5524 5543 5576 5591 5606 5613 5614 5616 5622 5624 5630 5629 5628 5630 5628 5614 5617 5612 5634 5642 5640 5638 5629 5631 5612 5600 5599 5615 5614 5619 5651 5665 5665 5666 5668 5669 5671 5674
5447 5454 5470 5487 5494 5497 5507 5517 5567 5579 5590 5597 5605 5600 5602 5616 5618 5625 5622 5630 5633 5630 5623 5606 5611 5633 5636 5640 5644 5623 5619 5625 5602 5586 5601 5618 5630 5652 5660 5663 5662 5663 5667 5669 5669
5430 5437 5455 5470 5476 5481 5497 5533 5559 5583 5591 5597 5587 5598 5594 5609 5610 5618 5614 5631 5629 5631 5636 5620 5612 5622 5629 5637 5631 5631 5627 5613 5607 5601 5598 5611 5614 5634 5652 5655 5657 5658 5663 5670 5670
5420 5425 5455 5452 5455 5468 5500 5540 5553 5571 5585 5582 5587 5586 5596 5602 5611 5609 5620 5630 5633 5625 5627 5619 5616 5611 5621 5624 5627 5618 5617 5608 5615 5606 5607 5602 5616 5642 5647 5652 5656 5658 5654 5658 5663
5411 5423 5449 5437 5436 5476 5512 5537 5549 5559 5569 5577 5583 5580 5586 5596 5601 5606 5615 5630 5634 5631 5619 5620 5610 5596 5616 5625 5630 5629 5624 5617 5607 5603 5590 5591 5611 5647 5649 5646 5646 5653 5651 5653 5656
5402 5430 5436 5434 5440 5478 5513 5525 5541 5550 5559 5569 5573 5576 5585 5588 5595 5606 5612 5629 5623 5627 5621 5615 5600 5594 5605 5612 5616 5619 5620 5615 5605 5600 5595 5598 5619 5641 5640 5642 5645 5646 5649 5650 5651
5398 5408 5420 5428 5466 5491 5492 5514 5531 5543 5551 5563 5567 5568 5575 5583 5594 5604 5610 5619 5620 5625 5622 5625 5603 5607 5603 5614 5618 5610 5616 5614 5618 5600 5606 5606 5625 5640 5643 5640 5649 5644 5643 5644 5643
5393 5408 5443 5439 5443 5475 5496 5515 5522 5537 5543 5551 5560 5561 5568 5569 5581 5591 5607 5610 5613 5609 5613 5618 5606 5602 5612 5617 5616 5621 5620 5611 5613 5618 5611 5624 5612 5634 5641 5640 5639 5634 5633 5633 5631
5392 5412 5432 5472 5480 5462 5474 5505 5520 5534 5545 5547 5563 5563 5565 5568 5582 5589 5599 5601 5602 5602 5607 5606 5603 5602 5603 5604 5606 5610 5616 5614 5613 5610 5611 5613 5613 5634 5634 5630 5627 5623 5623 5621 5618
5398 5416 5437 5465 5467 5461 5480 5498 5511 5528 5538 5551 5558 5556 5557 5577 5581 5588 5593 5599 5603 5603 5595 5599 5593 5592 5595 5589 5598 5591 5605 5612 5614 5616 5623 5611 5630 5627 5624 5620 5619 5615 5611 5607 5603